Вернуться в каталог

STARLINK-4609

АктивенСвязьVLEO
NORAD 53619·PAYLOAD·🇺🇸 United States

Запущен Aug 28, 2022 с Cape Canaveral Space Force Station

Loading…

Ближайшие Пролёты (ближайшие 24 часа)

TLE

СвежийSource: CelesTrak SupGP

Эпоха: Sep 14, 2026, 13:47 UTC

1 53619C 22104AH  26257.57479167  .00013346  00000+0  39438-3 0  2574
2 53619  53.1583  95.4369 0000933 101.1617 289.3494 15.34378335    11

Отслеживайте STARLINK-4609 в реальном времени с AllMySat

Download on the App Store